Weather in Romanovka

Russia / Saratov Oblast     51°23′02″N   47°22′31″E
temp.,
°C
wind,
m/s
gust,
m/s
humid.,
%
clouds,
%
prec.,
mm/h
press.,
hPa
HPBL,
m
26 january, tue
tue2601:00−4sse51094100 0.0 1026275
04:00−6sse5119396 0.0 1025235
07:00−6se41092100 0.0 1026238
10:00−6se51195100 0.0 1025276
13:00−3sse71195100 0.0 1025436
16:00−2sse71096100 0.0 1024456
19:00−1s61194100 0.0 1025547
22:00−2s5995100 0.1 1024349
27 january, wed
wed2701:00−2sse61092100 0.0 1025334
04:00−2s51091100 0.0 1025355
07:00−6sse499197 0.0 1024162
10:00−6sse6118896 0.0 1025257
13:00−4sse71288100 0.0 1024302
16:00−4sse61489100 0.0 1023364
19:00−3sse61391100 0.0 1023414
22:00−3sse71592100 0.0 1022455
28 january, thu
thu2801:00−4sse61293100 0.0 1021396
04:00−6se51194100 0.0 1020303
07:00−7se51195100 0.0 1019275
10:00−8se51095100 0.0 1019310
13:00−6se5894100 0.0 1018351
16:00−6se5994100 0.0 1017338
19:00−6se51095100 0.0 1017372
22:00−4ese41095100 0.1 1015384
29 january, fri
fri2901:00−7e4897100 0.0 1013159
04:00−5ese5997100 0.1 1011356
07:00−5e4896100 0.1 1009403
10:00−4ese4895100 0.1 1008495
13:00−3ese4694100 0.1 1006396
16:00−2ese2398100 0.9 1004166
19:00−3sw2298100 2.8 100569
22:00−5ssw4996100 3.0 1006159
30 january, sat
sat3001:00−6ssw479668 0.0 1007102
04:00−3s5119153 0.0 1007252
07:00−3s6139389 0.0 1006276
10:000s9159892 0.3 1006768
13:000ssw61299100 4.0 1006601
16:00−1w4898100 9.1 1005534
19:00−3ssw4995100 1.6 1006309
22:00−6ssw489780 1.6 1007142